Aberdeen / Amory, MS

10:02 AM CDT on August 23, 2017 (GMT -0500)
Aberdeen / Amory

Weather History for KM40 - June, 2013

Change the Weather History Date:

Thursday, June 13, 2013

  Actual Average (KCBM) Record (KCBM)
Temperature  
Mean Temperature 84 °F -  
Max Temperature 96 °F 85 °F 96 °F (1998)
Min Temperature 73 °F 66 °F 59 °F (2007)
Cooling Degree Days 20    
Growing Degree Days 34 (Base 50)    
Moisture  
Dew Point 66 °F    
Average Humidity 56    
Maximum Humidity 58    
Minimum Humidity 53    
Precipitation  
Precipitation 0.04 in - - ()
Sea Level Pressure  
Sea Level Pressure 29.94 in    
Wind  
Wind Speed 0 mph (North)    
Max Wind Speed 0 mph    
Max Gust Speed -    
Visibility 7 miles    
Events Rain    
Averages and records for this station are not official NWS values.
T = Trace of Precipitation, MM = Missing Value Source: NWS Daily Summary

Daily Weather History Graph

Daily Weather History Graph

Search for Another Location

Airport or City:

Trip Planner

Search our weather history database for the weather conditions in past years. The results will help you decide how hot, cold, wet, or windy it might be!

Date:

Astronomy

Jun. 13, 2013 Rise Set
Actual Time 5:42 AM CDT 8:05 PM CDT
Civil Twilight 5:13 AM CDT 8:34 PM CDT
Nautical Twilight 4:37 AM CDT 9:10 PM CDT
Astronomical Twilight 3:58 AM CDT 9:49 PM CDT
Moon 10:08 AM CDT (6/13) 11:24 PM CDT (6/13)
Length of Visible Light 15h 21m
Length of Day
14h 23m
Waxing Crescent, 22% of the Moon is Illuminated
Jun 13
Waxing Crescent
Jun 16
First Quarter
Jun 23
Full
Jun 29
Last Quarter
Jul 8
New

Hourly Weather History & Observations

Time (CDT) Temp. Heat Index Dew Point Humidity Pressure Visibility Wind Dir Wind Speed Gust Speed Precip Events Conditions
12:15 AM 75.2 °F - 57.2 °F 53% 30.00 in 5.0 mi North - - N/A   Haze
12:35 AM 73.4 °F - 57.2 °F 57% 30.00 in 5.0 mi North - - N/A   Haze
12:55 AM 73.4 °F - 57.2 °F 57% 30.00 in 5.0 mi Calm Calm - N/A   Haze
1:15 AM 73.4 °F - 57.2 °F 57% 29.99 in 4.0 mi Calm Calm - N/A   Haze
1:35 AM 73.4 °F - 57.2 °F 57% 29.99 in 5.0 mi North - - N/A   Haze
1:55 AM 73.4 °F - 55.4 °F 53% 29.99 in 6.0 mi North - - N/A   Haze
2:15 AM 73.4 °F - 55.4 °F 53% 29.99 in 5.0 mi North - - N/A   Haze
2:35 AM 73.4 °F - 55.4 °F 53% 29.99 in 5.0 mi North - - N/A   Haze
2:55 AM 73.4 °F - 55.4 °F 53% 29.98 in 6.0 mi Calm Calm - N/A   Haze
3:15 AM 75.2 °F - 59.0 °F 57% 29.97 in 8.0 mi North - - N/A   Clear
3:35 AM 77.0 °F - 60.8 °F 57% 29.97 in 7.0 mi North - - N/A   Clear
3:55 AM 77.0 °F - 60.8 °F 57% 29.98 in 7.0 mi North - - N/A   Clear
4:15 AM 75.2 °F - 57.2 °F 53% 29.98 in 7.0 mi North - - N/A   Clear
4:35 AM 73.4 °F - 57.2 °F 57% 29.97 in 6.0 mi North - - N/A   Haze
4:55 AM 73.4 °F - 57.2 °F 57% 29.98 in 7.0 mi North - - N/A   Clear
5:15 AM 73.4 °F - 57.2 °F 57% 29.98 in 5.0 mi North - - N/A   Haze
5:35 AM 73.4 °F - 57.2 °F 57% 29.98 in 6.0 mi North - - N/A   Haze
5:55 AM 73.4 °F - 57.2 °F 57% 29.99 in 5.0 mi North - - N/A   Haze
6:15 AM 75.2 °F - 57.2 °F 53% 29.99 in 5.0 mi North - - N/A   Haze
6:35 AM 75.2 °F - 59.0 °F 57% 29.99 in 5.0 mi North - - N/A   Haze
6:55 AM 77.0 °F - 60.8 °F 57% 30.00 in 5.0 mi North - - N/A   Haze
7:15 AM 78.8 °F - 60.8 °F 54% 30.00 in 5.0 mi North - - N/A   Haze
7:35 AM 78.8 °F - 62.6 °F 57% 30.00 in 5.0 mi North - - N/A   Haze
7:55 AM 80.6 °F 82.3 °F 64.4 °F 58% 30.01 in 5.0 mi North - - N/A   Haze
8:15 AM 82.4 °F 83.9 °F 64.4 °F 54% 30.01 in 5.0 mi North - - N/A   Haze
8:35 AM 82.4 °F 84.6 °F 66.2 °F 58% 30.01 in 6.0 mi North - - N/A   Haze
8:55 AM 84.2 °F 86.6 °F 66.2 °F 55% 30.01 in 6.0 mi North - - N/A   Haze
9:15 AM 86.0 °F 89.4 °F 68.0 °F 55% 30.00 in 8.0 mi North - - N/A   Clear
9:35 AM 87.8 °F 92.6 °F 69.8 °F 55% 29.99 in 7.0 mi North - - N/A   Clear
9:55 AM 89.6 °F 96.2 °F 71.6 °F 55% 29.99 in 6.0 mi North - - N/A   Haze
10:15 AM 89.6 °F 96.2 °F 71.6 °F 55% 29.98 in 7.0 mi North - - N/A   Clear
10:35 AM 91.4 °F 100.1 °F 73.4 °F 55% 29.98 in 7.0 mi North - - N/A   Clear
10:55 AM 91.4 °F 100.1 °F 73.4 °F 55% 29.98 in 7.0 mi North - - N/A   Clear
11:15 AM 91.4 °F 100.1 °F 73.4 °F 55% 29.97 in 8.0 mi North - - N/A   Clear
11:35 AM 93.2 °F 105.0 °F 75.2 °F 56% 29.96 in 7.0 mi North - - N/A   Clear
11:55 AM 93.2 °F 105.0 °F 75.2 °F 56% 29.96 in 7.0 mi North - - N/A   Partly Cloudy
12:15 PM 93.2 °F 105.0 °F 75.2 °F 56% 29.95 in 7.0 mi North - - N/A   Partly Cloudy
12:35 PM 93.2 °F 105.0 °F 75.2 °F 56% 29.95 in 8.0 mi North - - N/A   Partly Cloudy
12:55 PM 93.2 °F 105.0 °F 75.2 °F 56% 29.94 in 8.0 mi North - - N/A   Scattered Clouds
1:15 PM 93.2 °F 105.0 °F 75.2 °F 56% 29.93 in 8.0 mi North - - N/A   Scattered Clouds
1:35 PM 95.0 °F 109.7 °F 77.0 °F 56% 29.92 in 7.0 mi North - - N/A   Partly Cloudy
1:55 PM 95.0 °F 109.7 °F 77.0 °F 56% 29.92 in 7.0 mi North - - N/A   Scattered Clouds
2:15 PM 96.8 °F 114.8 °F 78.8 °F 56% 29.92 in 8.0 mi North - - N/A   Partly Cloudy
2:35 PM 96.8 °F 114.8 °F 78.8 °F 56% 29.91 in 8.0 mi North - - N/A   Partly Cloudy
2:55 PM 95.0 °F 109.7 °F 77.0 °F 56% 29.90 in 8.0 mi North - - N/A   Partly Cloudy
3:15 PM 96.8 °F 114.8 °F 78.8 °F 56% 29.89 in 8.0 mi North - - N/A   Partly Cloudy
3:35 PM 95.0 °F 109.7 °F 77.0 °F 56% 29.89 in 8.0 mi North - - N/A   Clear
3:55 PM 96.8 °F 114.8 °F 78.8 °F 56% 29.88 in 7.0 mi North - - N/A   Partly Cloudy
4:15 PM 96.8 °F 114.8 °F 78.8 °F 56% 29.87 in 7.0 mi North - - N/A   Partly Cloudy
4:35 PM 93.2 °F 105.0 °F 75.2 °F 56% 29.86 in 8.0 mi North - - N/A   Partly Cloudy
4:55 PM 95.0 °F 109.7 °F 77.0 °F 56% 29.85 in 8.0 mi North - - N/A   Clear
5:15 PM 93.2 °F 105.0 °F 75.2 °F 56% 29.85 in 7.0 mi North - - N/A   Partly Cloudy
5:35 PM 91.4 °F 100.1 °F 73.4 °F 55% 29.85 in 8.0 mi North - - N/A   Partly Cloudy
5:55 PM 89.6 °F 96.2 °F 71.6 °F 55% 29.85 in 5.0 mi North - - N/A   Haze
6:15 PM 86.0 °F 90.4 °F 69.8 °F 58% 29.85 in 2.0 mi North - - 0.03 in Rain Rain
6:35 PM 82.4 °F 84.6 °F 66.2 °F 58% 29.85 in 5.0 mi North - - 0.04 in   Haze
6:55 PM 82.4 °F 84.6 °F 66.2 °F 58% 29.84 in 6.0 mi North - - 0.04 in   Haze
7:15 PM 84.2 °F 87.3 °F 68.0 °F 58% 29.85 in 7.0 mi North - - N/A   Scattered Clouds
7:35 PM 84.2 °F 86.6 °F 66.2 °F 55% 29.86 in 7.0 mi Calm Calm - N/A   Partly Cloudy
7:55 PM 82.4 °F 84.6 °F 66.2 °F 58% 29.86 in 7.0 mi North - - N/A   Clear
8:15 PM 82.4 °F 83.9 °F 64.4 °F 54% 29.86 in 7.0 mi North - - N/A   Clear
8:35 PM 80.6 °F 82.3 °F 64.4 °F 58% 29.87 in 10.0 mi North - - N/A   Clear
8:55 PM 80.6 °F 81.8 °F 62.6 °F 54% 29.88 in 10.0 mi North - - N/A   Clear
9:15 PM 78.8 °F - 62.6 °F 57% 29.89 in 10.0 mi North - - N/A   Clear
9:35 PM 78.8 °F - 60.8 °F 54% 29.91 in 10.0 mi North - - N/A   Clear
9:55 PM 78.8 °F - 60.8 °F 54% 29.91 in 10.0 mi North - - N/A   Clear
10:15 PM 77.0 °F - 60.8 °F 57% 29.92 in 10.0 mi North - - N/A   Clear
10:35 PM 77.0 °F - 60.8 °F 57% 29.93 in 10.0 mi North - - N/A   Clear
10:55 PM 75.2 °F - 59.0 °F 57% 29.93 in 10.0 mi North - - N/A   Clear
11:15 PM 75.2 °F - 57.2 °F 53% 29.93 in 10.0 mi North - - N/A   Clear
11:35 PM 75.2 °F - 57.2 °F 53% 29.93 in 10.0 mi North - - N/A   Clear
11:55 PM 75.2 °F - 57.2 °F 53% 29.94 in 10.0 mi North - - N/A   Clear